Time,TemperatureF,DewpointF,PressureIn,WindDirection,WindDirectionDegrees,WindSpeedMPH,WindSpeedGustMPH,Humidity,HourlyPrecipIn,Conditions,Clouds,dailyrainin,SoftwareType,DateUTC
2013-08-09 00:01:00,58.0,51.0,29.79,ESE,115,0.0,-999.0,77,-99.99,,,-99.99,,2013-08-09 07:01:00,
2013-08-09 00:12:00,58.0,51.0,29.79,ESE,115,0.0,-999.0,77,-99.99,,,-99.99,,2013-08-09 07:12:00,
2013-08-09 00:21:00,57.0,50.0,29.79,ESE,115,0.0,-999.0,77,-99.99,,,-99.99,,2013-08-09 07:21:00,
2013-08-09 00:33:00,57.0,50.0,29.79,ESE,115,0.0,-999.0,78,-99.99,,,-99.99,,2013-08-09 07:33:00,
2013-08-09 00:43:00,56.0,50.0,29.79,ESE,115,0.0,-999.0,79,-99.99,,,-99.99,,2013-08-09 07:43:00,
2013-08-09 00:52:00,56.0,50.0,29.79,ESE,115,0.0,-999.0,79,-99.99,,,-99.99,,2013-08-09 07:52:00,
2013-08-09 01:02:00,56.0,50.0,29.79,ESE,115,0.0,-999.0,80,-99.99,,,-99.99,,2013-08-09 08:02:00,
2013-08-09 01:21:00,56.0,50.0,29.78,ESE,115,0.0,-999.0,80,-99.99,,,-99.99,,2013-08-09 08:21:00,
2013-08-09 01:43:00,55.0,50.0,29.78,ESE,115,0.0,-999.0,82,-99.99,,,-99.99,,2013-08-09 08:43:00,
2013-08-09 01:53:00,55.0,50.0,29.78,ESE,115,0.0,-999.0,82,-99.99,,,-99.99,,2013-08-09 08:53:00,
2013-08-09 02:02:00,55.0,50.0,29.78,ESE,115,0.0,-999.0,82,-99.99,,,-99.99,,2013-08-09 09:02:00,
2013-08-09 02:22:00,55.0,49.0,29.78,ESE,115,0.0,-999.0,81,-99.99,,,-99.99,,2013-08-09 09:22:00,
2013-08-09 02:32:00,55.0,49.0,29.78,ESE,115,0.0,-999.0,81,-99.99,,,-99.99,,2013-08-09 09:32:00,
2013-08-09 02:43:00,54.0,48.0,29.78,ESE,115,0.0,-999.0,81,-99.99,,,-99.99,,2013-08-09 09:43:00,
2013-08-09 02:52:00,54.0,48.0,29.78,ESE,115,0.0,-999.0,81,-99.99,,,-99.99,,2013-08-09 09:52:00,
2013-08-09 03:01:00,54.0,48.0,29.78,ESE,115,0.0,-999.0,81,-99.99,,,-99.99,,2013-08-09 10:01:00,
2013-08-09 03:21:00,54.0,48.0,29.78,ESE,115,0.0,-999.0,81,-99.99,,,-99.99,,2013-08-09 10:21:00,
2013-08-09 03:32:00,54.0,49.0,29.78,ESE,115,0.0,-999.0,82,-99.99,,,-99.99,,2013-08-09 10:32:00,
2013-08-09 03:43:00,54.0,49.0,29.78,ESE,115,0.0,-999.0,82,-99.99,,,-99.99,,2013-08-09 10:43:00,
2013-08-09 03:53:00,54.0,49.0,29.78,ESE,115,0.0,-999.0,82,-99.99,,,-99.99,,2013-08-09 10:53:00,
2013-08-09 04:01:00,53.0,48.0,29.78,ESE,115,0.0,-999.0,82,-99.99,,,-99.99,,2013-08-09 11:01:00,
2013-08-09 04:11:00,53.0,48.0,29.78,ESE,115,0.0,-999.0,82,-99.99,,,-99.99,,2013-08-09 11:11:00,
2013-08-09 04:21:00,53.0,48.0,29.78,ESE,115,0.0,-999.0,83,-99.99,,,-99.99,,2013-08-09 11:21:00,
2013-08-09 04:42:00,53.0,48.0,29.77,ESE,115,0.0,-999.0,82,-99.99,,,-99.99,,2013-08-09 11:42:00,
2013-08-09 04:53:00,53.0,48.0,29.77,ESE,115,0.0,-999.0,82,-99.99,,,-99.99,,2013-08-09 11:53:00,
2013-08-09 05:02:00,53.0,48.0,29.77,ESE,115,0.0,-999.0,82,-99.99,,,-99.99,,2013-08-09 12:02:00,
2013-08-09 05:22:00,53.0,48.0,29.78,ESE,115,0.0,-999.0,82,-99.99,,,-99.99,,2013-08-09 12:22:00,
2013-08-09 05:43:00,53.0,48.0,29.78,ESE,115,0.0,-999.0,82,-99.99,,,-99.99,,2013-08-09 12:43:00,
2013-08-09 05:52:00,53.0,48.0,29.78,ESE,115,0.0,-999.0,82,-99.99,,,-99.99,,2013-08-09 12:52:00,
2013-08-09 06:01:00,53.0,48.0,29.78,ESE,115,0.0,-999.0,84,-99.99,,,-99.99,,2013-08-09 13:01:00,
2013-08-09 06:23:00,53.0,48.0,29.78,ESE,115,0.0,-999.0,84,-99.99,,,-99.99,,2013-08-09 13:23:00,
2013-08-09 06:32:00,52.0,47.0,29.78,ESE,115,0.0,-999.0,83,-99.99,,,-99.99,,2013-08-09 13:32:00,
2013-08-09 06:43:00,52.0,47.0,29.79,ESE,115,0.0,-999.0,82,-99.99,,,-99.99,,2013-08-09 13:43:00,
2013-08-09 06:52:00,52.0,47.0,29.79,ESE,115,0.0,-999.0,82,-99.99,,,-99.99,,2013-08-09 13:52:00,
2013-08-09 07:02:00,52.0,48.0,29.79,ESE,115,0.0,-999.0,86,-99.99,,,-99.99,,2013-08-09 14:02:00,
2013-08-09 07:11:00,52.0,48.0,29.79,ESE,115,0.0,-999.0,86,-99.99,,,-99.99,,2013-08-09 14:11:00,
2013-08-09 07:22:00,53.0,48.0,29.80,ESE,115,0.0,-999.0,84,-99.99,,,-99.99,,2013-08-09 14:22:00,
2013-08-09 07:43:00,54.0,51.0,29.80,ESE,115,0.0,-999.0,89,-99.99,,,-99.99,,2013-08-09 14:43:00,
2013-08-09 07:53:00,54.0,51.0,29.80,ESE,115,0.0,-999.0,89,-99.99,,,-99.99,,2013-08-09 14:53:00,
2013-08-09 08:01:00,54.0,51.0,29.81,ESE,115,0.0,-999.0,90,-99.99,,,-99.99,,2013-08-09 15:01:00,
2013-08-09 08:22:00,55.0,52.0,29.81,ESE,115,0.0,-999.0,90,-99.99,,,-99.99,,2013-08-09 15:22:00,
2013-08-09 08:43:00,56.0,53.0,29.81,ESE,115,0.0,-999.0,89,-99.99,,,-99.99,,2013-08-09 15:43:00,
2013-08-09 08:53:00,56.0,53.0,29.81,ESE,115,0.0,-999.0,89,-99.99,,,-99.99,,2013-08-09 15:53:00,
2013-08-09 09:01:00,57.0,53.0,29.81,ESE,115,0.0,-999.0,88,-99.99,,,-99.99,,2013-08-09 16:01:00,
2013-08-09 09:11:00,57.0,53.0,29.81,ESE,115,0.0,-999.0,88,-99.99,,,-99.99,,2013-08-09 16:11:00,
2013-08-09 09:22:00,58.0,54.0,29.80,ESE,115,0.0,-999.0,87,-99.99,,,-99.99,,2013-08-09 16:22:00,
2013-08-09 09:43:00,60.0,54.0,29.80,ESE,115,0.0,-999.0,82,-99.99,,,-99.99,,2013-08-09 16:43:00,
2013-08-09 09:53:00,60.0,54.0,29.80,ESE,115,0.0,-999.0,82,-99.99,,,-99.99,,2013-08-09 16:53:00,
2013-08-09 10:02:00,61.0,54.0,29.80,ESE,115,0.0,-999.0,78,-99.99,,,-99.99,,2013-08-09 17:02:00,
2013-08-09 10:22:00,63.0,55.0,29.80,ESE,115,0.0,-999.0,75,-99.99,,,-99.99,,2013-08-09 17:22:00,
2013-08-09 10:32:00,65.0,55.0,29.80,East,98,0.0,-999.0,69,-99.99,,,-99.99,,2013-08-09 17:32:00,
2013-08-09 10:52:00,67.0,55.0,29.81,East,101,0.0,-999.0,66,-99.99,,,-99.99,,2013-08-09 17:52:00,
2013-08-09 11:01:00,69.0,57.0,29.81,ESE,103,0.0,-999.0,66,-99.99,,,-99.99,,2013-08-09 18:01:00,
2013-08-09 11:22:00,71.0,57.0,29.81,NNE,31,0.0,-999.0,61,-99.99,,,-99.99,,2013-08-09 18:22:00,
2013-08-09 11:32:00,74.0,57.0,29.80,ESE,108,0.0,-999.0,56,-99.99,,,-99.99,,2013-08-09 18:32:00,
2013-08-09 11:52:00,76.0,59.0,29.80,East,94,0.0,-999.0,55,-99.99,,,-99.99,,2013-08-09 18:52:00,
2013-08-09 12:02:00,78.0,58.0,29.80,ESE,119,0.0,-999.0,51,-99.99,,,-99.99,,2013-08-09 19:02:00,
2013-08-09 12:22:00,78.0,59.0,29.79,NNE,17,0.0,-999.0,52,-99.99,,,-99.99,,2013-08-09 19:22:00,
2013-08-09 12:32:00,79.0,59.0,29.79,East,95,0.0,-999.0,50,-99.99,,,-99.99,,2013-08-09 19:32:00,
2013-08-09 12:52:00,78.0,59.0,29.79,SE,134,0.0,-999.0,52,-99.99,,,-99.99,,2013-08-09 19:52:00,
2013-08-09 13:22:00,79.0,60.0,29.79,NE,50,0.0,-999.0,52,-99.99,,,-99.99,,2013-08-09 20:22:00,
2013-08-09 13:32:00,80.0,61.0,29.79,SE,142,0.0,-999.0,52,-99.99,,,-99.99,,2013-08-09 20:32:00,
2013-08-09 13:43:00,79.0,59.0,29.79,SE,132,0.0,-999.0,51,-99.99,,,-99.99,,2013-08-09 20:43:00,
2013-08-09 13:52:00,79.0,59.0,29.79,SE,132,0.0,-999.0,51,-99.99,,,-99.99,,2013-08-09 20:52:00,
2013-08-09 14:22:00,80.0,59.0,29.78,East,86,0.0,-999.0,49,-99.99,,,-99.99,,2013-08-09 21:22:00,
2013-08-09 14:32:00,81.0,60.0,29.78,NE,45,0.0,-999.0,49,-99.99,,,-99.99,,2013-08-09 21:32:00,
2013-08-09 14:43:00,80.0,59.0,29.78,ESE,111,0.0,-999.0,48,-99.99,,,-99.99,,2013-08-09 21:43:00,
2013-08-09 14:52:00,80.0,59.0,29.78,ESE,111,0.0,-999.0,48,-99.99,,,-99.99,,2013-08-09 21:52:00,
2013-08-09 15:11:00,81.0,59.0,29.78,ESE,115,0.0,-999.0,48,-99.99,,,-99.99,,2013-08-09 22:11:00,
2013-08-09 15:22:00,81.0,59.0,29.78,ESE,115,0.0,-999.0,48,-99.99,,,-99.99,,2013-08-09 22:22:00,
2013-08-09 15:32:00,81.0,59.0,29.78,ESE,117,0.0,-999.0,47,-99.99,,,-99.99,,2013-08-09 22:32:00,
2013-08-09 15:52:00,81.0,59.0,29.77,ENE,57,0.0,-999.0,48,-99.99,,,-99.99,,2013-08-09 22:52:00,
2013-08-09 16:01:00,80.0,58.0,29.77,East,95,1.0,-999.0,47,-99.99,,,-99.99,,2013-08-09 23:01:00,
2013-08-09 16:11:00,80.0,58.0,29.77,East,95,1.0,-999.0,47,-99.99,,,-99.99,,2013-08-09 23:11:00,
2013-08-09 16:21:00,80.0,59.0,29.77,ESE,113,0.0,-999.0,49,-99.99,,,-99.99,,2013-08-09 23:21:00,
2013-08-09 16:43:00,78.0,58.0,29.78,ESE,105,1.0,-999.0,50,-99.99,,,-99.99,,2013-08-09 23:43:00,
2013-08-09 16:52:00,78.0,58.0,29.78,ESE,105,1.0,-999.0,50,-99.99,,,-99.99,,2013-08-09 23:52:00,
2013-08-09 17:01:00,77.0,57.0,29.77,ESE,115,0.0,-999.0,51,-99.99,,,-99.99,,2013-08-10 00:01:00,
2013-08-09 17:21:00,78.0,58.0,29.78,SE,130,0.0,-999.0,51,-99.99,,,-99.99,,2013-08-10 00:21:00,
2013-08-09 17:33:00,78.0,56.0,29.78,ESE,123,0.0,-999.0,47,-99.99,,,-99.99,,2013-08-10 00:33:00,
2013-08-09 17:42:00,78.0,56.0,29.78,ESE,123,0.0,-999.0,47,-99.99,,,-99.99,,2013-08-10 00:42:00,
2013-08-09 17:52:00,78.0,56.0,29.78,ESE,123,0.0,-999.0,47,-99.99,,,-99.99,,2013-08-10 00:52:00,
2013-08-09 18:01:00,78.0,57.0,29.78,SE,130,0.0,-999.0,49,-99.99,,,-99.99,,2013-08-10 01:01:00,
2013-08-09 18:11:00,78.0,57.0,29.78,SE,130,0.0,-999.0,49,-99.99,,,-99.99,,2013-08-10 01:11:00,
2013-08-09 18:21:00,77.0,56.0,29.78,NNE,16,0.0,-999.0,49,-99.99,,,-99.99,,2013-08-10 01:21:00,
2013-08-09 18:32:00,77.0,56.0,29.78,NNE,16,0.0,-999.0,49,-99.99,,,-99.99,,2013-08-10 01:32:00,
2013-08-09 18:40:00,76.0,56.0,29.78,East,93,0.0,-999.0,50,-99.99,,,-99.99,,2013-08-10 01:40:00,
2013-08-09 18:42:00,77.0,56.0,29.78,NNE,16,0.0,-999.0,49,-99.99,,,-99.99,,2013-08-10 01:42:00,
2013-08-09 18:52:00,77.0,56.0,29.78,NNE,16,0.0,-999.0,49,-99.99,,,-99.99,,2013-08-10 01:52:00,
2013-08-09 19:02:00,76.0,56.0,29.78,East,93,0.0,-999.0,50,-99.99,,,-99.99,,2013-08-10 02:02:00,
2013-08-09 19:11:00,76.0,56.0,29.78,East,93,0.0,-999.0,50,-99.99,,,-99.99,,2013-08-10 02:11:00,
2013-08-09 19:21:00,76.0,56.0,29.78,East,93,0.0,-999.0,50,-99.99,,,-99.99,,2013-08-10 02:21:00,
2013-08-09 19:32:00,76.0,56.0,29.78,East,93,0.0,-999.0,50,-99.99,,,-99.99,,2013-08-10 02:32:00,
2013-08-09 20:01:00,70.0,55.0,29.80,ESE,117,0.0,-999.0,58,-99.99,,,-99.99,,2013-08-10 03:01:00,
2013-08-09 20:11:00,70.0,55.0,29.80,ESE,117,0.0,-999.0,58,-99.99,,,-99.99,,2013-08-10 03:11:00,
2013-08-09 20:21:00,70.0,55.0,29.80,ESE,117,0.0,-999.0,58,-99.99,,,-99.99,,2013-08-10 03:21:00,
2013-08-09 20:32:00,70.0,55.0,29.80,ESE,117,0.0,-999.0,58,-99.99,,,-99.99,,2013-08-10 03:32:00,
2013-08-09 20:42:00,69.0,55.0,29.79,ESE,117,0.0,-999.0,62,-99.99,,,-99.99,,2013-08-10 03:42:00,
2013-08-09 20:52:00,69.0,55.0,29.79,ESE,117,0.0,-999.0,62,-99.99,,,-99.99,,2013-08-10 03:52:00,
2013-08-09 21:01:00,69.0,55.0,29.79,ESE,117,0.0,-999.0,62,-99.99,,,-99.99,,2013-08-10 04:01:00,
2013-08-09 21:12:00,66.0,56.0,29.80,East,97,0.0,-999.0,70,-99.99,,,-99.99,,2013-08-10 04:12:00,
2013-08-09 21:22:00,65.0,57.0,29.81,East,98,0.0,-999.0,75,-99.99,,,-99.99,,2013-08-10 04:22:00,
2013-08-09 21:32:00,64.0,56.0,29.81,East,98,0.0,-999.0,75,-99.99,,,-99.99,,2013-08-10 04:32:00,
2013-08-09 21:42:00,63.0,55.0,29.82,East,98,0.0,-999.0,75,-99.99,,,-99.99,,2013-08-10 04:42:00,
2013-08-09 21:53:00,63.0,55.0,29.82,East,98,0.0,-999.0,75,-99.99,,,-99.99,,2013-08-10 04:53:00,
2013-08-09 22:02:00,63.0,54.0,29.83,East,98,0.0,-999.0,73,-99.99,,,-99.99,,2013-08-10 05:02:00,
2013-08-09 22:11:00,63.0,54.0,29.83,East,98,0.0,-999.0,73,-99.99,,,-99.99,,2013-08-10 05:11:00,
2013-08-09 22:21:00,62.0,53.0,29.82,East,98,0.0,-999.0,73,-99.99,,,-99.99,,2013-08-10 05:21:00,
2013-08-09 22:42:00,61.0,52.0,29.83,East,98,0.0,-999.0,73,-99.99,,,-99.99,,2013-08-10 05:42:00,
2013-08-09 22:52:00,61.0,52.0,29.83,East,98,0.0,-999.0,73,-99.99,,,-99.99,,2013-08-10 05:52:00,
2013-08-09 23:02:00,60.0,52.0,29.83,East,98,0.0,-999.0,74,-99.99,,,-99.99,,2013-08-10 06:02:00,
2013-08-09 23:11:00,60.0,52.0,29.83,East,98,0.0,-999.0,74,-99.99,,,-99.99,,2013-08-10 06:11:00,
2013-08-09 23:22:00,60.0,52.0,29.83,East,98,0.0,-999.0,74,-99.99,,,-99.99,,2013-08-10 06:22:00,
2013-08-09 23:43:00,58.0,50.0,29.83,East,98,0.0,-999.0,75,-99.99,,,-99.99,,2013-08-10 06:43:00,
2013-08-09 23:52:00,58.0,50.0,29.83,East,98,0.0,-999.0,75,-99.99,,,-99.99,,2013-08-10 06:52:00,